Weather History for KDTW - March, 2015

Change the Weather History Date:

Saturday, March 28, 2015

  Actual Average Record
Temperature  
Mean Temperature 27 °F 42 °F  
Max Temperature 39 °F 51 °F 82 °F (1945)
Min Temperature 15 °F 33 °F 4 °F (1934)
Degree Days  
Heating Degree Days 38 23  
Month to date heating degree days 865 795  
Since 1 July heating degree days 5976 5348  
Cooling Degree Days 0 0  
Month to date cooling degree days 0 0  
Year to date cooling degree days 0 0  
Moisture  
Dew Point 8 °F    
Average Humidity 48    
Maximum Humidity 68    
Minimum Humidity 27    
Precipitation  
Precipitation T in 0.08 in 1.69 in (1985)
Month to date precipitation 0.59 2.03  
Year to date precipitation 3.39 6.01  
Snow  
Snow T in 0.20 in 2.50 in (1964)
Month to date snowfall 2.8 6.5  
Since 1 July snowfall 47.5 40.4  
Snow Depth 0.00 in    
Sea Level Pressure  
Sea Level Pressure 30.28 in    
Wind  
Wind Speed 6 mph (NW)    
Max Wind Speed 14 mph    
Max Gust Speed 20 mph    
Visibility 10 miles    
Events      
T = Trace of Precipitation, MM = Missing Value Source: NWS Daily Summary

Daily Weather History Graph

Daily Weather History Graph

Search for Another Location

Airport or City:

Trip Planner

Search our weather history database for the weather conditions in past years. The results will help you decide how hot, cold, wet, or windy it might be!

Date:

Astronomy

Mar. 28, 2015 Rise Set
Actual Time 7:23 AM EDT 7:54 PM EDT
Civil Twilight 6:55 AM EDT 8:22 PM EDT
Nautical Twilight 6:21 AM EDT 8:55 PM EDT
Astronomical Twilight 5:47 AM EDT 9:30 PM EDT
Moon 1:48 PM EDT (3/28) 3:33 AM EDT (3/28)
Length of Visible Light 13h 27m
Length of Day
12h 31m
Waxing Gibbous, 63% of the Moon is Illuminated
Mar 28
Waxing Gibbous
Apr 4
Full
Apr 11
Last Quarter
Apr 18
New
Apr 25
First Quarter

Hourly Weather History & Observations

Time (EDT) Temp. Windchill Dew Point Humidity Pressure Visibility Wind Dir Wind Speed Gust Speed Precip Events Conditions
12:53 AM 17.1 °F 5.8 °F 5.0 °F 59% 30.21 in 10.0 mi North 9.2 mph - N/A   Partly Cloudy
1:53 AM 15.1 °F 7.7 °F 6.1 °F 68% 30.21 in 10.0 mi NW 4.6 mph - N/A   Partly Cloudy
2:53 AM 17.1 °F 6.6 °F 7.0 °F 65% 30.20 in 10.0 mi NW 8.1 mph - N/A   Mostly Cloudy
3:53 AM 17.1 °F 6.6 °F 7.0 °F 65% 30.21 in 10.0 mi WNW 8.1 mph - N/A   Mostly Cloudy
4:53 AM 17.1 °F 5.8 °F 6.1 °F 62% 30.21 in 10.0 mi NNW 9.2 mph - N/A   Mostly Cloudy
5:53 AM 18.0 °F 7.7 °F 6.1 °F 60% 30.22 in 10.0 mi NW 8.1 mph - N/A   Overcast
6:53 AM 18.0 °F 7.7 °F 6.1 °F 60% 30.24 in 10.0 mi NW 8.1 mph - N/A   Overcast
7:53 AM 19.0 °F 7.5 °F 8.1 °F 62% 30.27 in 10.0 mi WNW 10.4 mph - N/A   Mostly Cloudy
8:53 AM 21.0 °F 12.4 °F 9.0 °F 60% 30.30 in 10.0 mi NNW 6.9 mph - N/A   Mostly Cloudy
9:53 AM 24.1 °F 13.7 °F 10.0 °F 55% 30.32 in 10.0 mi North 10.4 mph - N/A   Mostly Cloudy
10:53 AM 28.0 °F 18.6 °F 9.0 °F 45% 30.32 in 10.0 mi North 10.4 mph 18.4 mph N/A   Mostly Cloudy
11:53 AM 28.9 °F 20.4 °F 9.0 °F 43% 30.32 in 10.0 mi NNW 9.2 mph - N/A   Scattered Clouds
12:53 PM 30.0 °F 22.4 °F 9.0 °F 41% 30.32 in 10.0 mi NW 8.1 mph - 0.00 in   Scattered Clouds
1:53 PM 32.0 °F 23.6 °F 9.0 °F 38% 30.32 in 10.0 mi NW 10.4 mph - N/A   Scattered Clouds
2:53 PM 35.1 °F 30.1 °F 9.0 °F 34% 30.31 in 10.0 mi NW 5.8 mph - N/A   Partly Cloudy
3:53 PM 37.0 °F 31.0 °F 9.0 °F 31% 30.30 in 10.0 mi NNW 8.1 mph - N/A   Partly Cloudy
4:53 PM 37.0 °F - 8.1 °F 30% 30.28 in 10.0 mi Calm Calm - N/A   Partly Cloudy
5:53 PM 37.0 °F 31.0 °F 7.0 °F 29% 30.28 in 10.0 mi West 8.1 mph - N/A   Partly Cloudy
6:53 PM 36.0 °F 29.6 °F 7.0 °F 30% 30.30 in 10.0 mi West 8.1 mph - N/A   Clear
7:53 PM 32.0 °F 24.8 °F 6.1 °F 34% 30.31 in 10.0 mi WNW 8.1 mph - N/A   Clear
8:53 PM 30.9 °F - 7.0 °F 37% 30.32 in 10.0 mi Calm Calm - N/A   Clear
9:53 PM 32.0 °F - 7.0 °F 35% 30.33 in 10.0 mi Calm Calm - N/A   Clear
10:53 PM 28.0 °F - 14.0 °F 56% 30.33 in 10.0 mi Calm Calm - N/A   Clear
11:53 PM 26.1 °F - 17.1 °F 69% 30.34 in 10.0 mi Calm Calm - N/A   Clear